Flag for China

Past Weather in Chengdu, Sichuan, China — Yesterday and Last 2 Weeks

Now
68 °F

Sprinkles. Fog.


Feels Like: 68 °F
Forecast: 79 / 64 °F
Wind: 3 mph from North

Location: Chengdu Airport
Current Time: Sep 28, 2020 at 4:14:58 pm
Latest Report: Sep 28, 2020 at 3:00 pm
Visibility: 3 mi
Pressure29.86 "Hg
Humidity: 94%
Dew Point: 66 °F
Location of ChengduLocation

Past Weather in Chengdu — Graph

°F

Chengdu Temperature Yesterday

Maximum temperature yesterday: 72 °F (at 2:00 pm)
Minimum temperature yesterday: 64 °F (at 12:00 am)
Average temperature yesterday: 66 °F

High & Low Weather Summary for the Past Weeks

 TemperatureHumidityPressure
High81 °F (Sep 17, 5:00 pm)100% (Sep 14, 5:00 am)30.12 "Hg (Sep 14, 5:00 am)
Low64 °F (Sep 22, 4:00 am)34% (Sep 17, 6:00 pm)29.80 "Hg (Sep 15, 6:00 pm)
Average70 °F88%29.96 "Hg
* Reported Sep 13 2:00 pm — Sep 28 2:00 pm, Chengdu. Weather by CustomWeather, © 2020

Note: Actual official high and low records may vary slightly from our data, if they occured in-between our weather recording intervals... More about our weather records

Chengdu Weather History for the Previous 24 Hours

Scroll right to see more
 ConditionsComfort  
Time TempWeatherWind HumidityBarometerVisibility
2:00 pm
Mon, Sep 28
66 °FSprinkles. Fog.6 mph100%29.86 "Hg2 mi
1:00 pm66 °FSprinkles. Fog.3 mph100%29.89 "Hg2 mi
12:00 pm68 °FSprinkles. Fog.3 mph94%29.92 "Hg2 mi
11:00 am66 °FSprinkles. Fog.6 mph100%29.92 "Hg2 mi
10:00 am66 °FSprinkles. Fog.6 mph100%29.92 "Hg2 mi
9:00 am66 °FSprinkles. Fog.6 mph94%29.92 "Hg3 mi
8:00 am66 °FFog.6 mph100%29.89 "Hg2 mi
7:00 am66 °FFog.6 mph100%29.86 "Hg2 mi
6:00 am64 °FSprinkles. Fog.No wind100%29.86 "Hg3 mi
5:00 am64 °FSprinkles. Fog.No wind100%29.86 "Hg3 mi
4:00 am66 °FSprinkles. Fog.No wind100%29.89 "Hg3 mi
3:00 am64 °FSprinkles. Fog.No wind100%29.89 "Hg3 mi
2:00 am66 °FSprinkles. Fog.No wind100%29.92 "Hg2 mi
1:00 am66 °FSprinkles. Fog.No wind100%29.92 "Hg2 mi
12:00 am66 °FSprinkles. Fog.1 mph100%29.95 "Hg2 mi
11:00 pm
Sun, Sep 27
66 °FSprinkles. Fog.No wind100%29.95 "Hg2 mi
10:00 pm66 °FSprinkles. Fog.No wind100%29.95 "Hg2 mi
9:00 pm66 °FSprinkles. Fog.1 mph100%29.92 "Hg2 mi
8:00 pm66 °FRain showers. Fog.1 mph100%29.89 "Hg2 mi
7:00 pm68 °FSprinkles. Fog.6 mph100%29.89 "Hg3 mi
6:00 pm68 °FSprinkles. Partly sunny.6 mph94%29.89 "HgN/A
5:00 pm70 °FPartly sunny.6 mph88%29.86 "HgN/A
4:00 pm70 °FPartly sunny.6 mph83%29.86 "HgN/A
Weather by CustomWeather, © 2020

See weather overview